Needles, CA

2:18 AM PDT on May 29, 2017 (GMT -0700)
Needles

Weather History for KEED - May, 2013

Change the Weather History Date:

Sunday, May 19, 2013

  Actual Average Record
Temperature  
Mean Temperature 85 °F 83 °F  
Max Temperature 99 °F 96 °F 114 °F (2008)
Min Temperature 72 °F 69 °F 46 °F (1909)
Degree Days  
Heating Degree Days 0    
Cooling Degree Days 20    
Growing Degree Days 35 (Base 50)    
Moisture  
Dew Point 25 °F    
Average Humidity 11    
Maximum Humidity 18    
Minimum Humidity 5    
Precipitation  
Precipitation 0.00 in 0.00 in 0.15 in (2012)
Month to date precipitation 0.06  
Year to date precipitation 2.32  
Sea Level Pressure  
Sea Level Pressure 29.71 in    
Wind  
Wind Speed 7 mph (North)    
Max Wind Speed 17 mph    
Max Gust Speed 25 mph    
Visibility 10 miles    
Events      
T = Trace of Precipitation, MM = Missing Value Source: NWS Daily Summary

Daily Weather History Graph

Daily Weather History Graph

Search for Another Location

Airport or City:

Trip Planner

Search our weather history database for the weather conditions in past years. The results will help you decide how hot, cold, wet, or windy it might be!

Date:

Astronomy

May. 19, 2013 Rise Set
Actual Time 5:32 AM PDT 7:37 PM PDT
Civil Twilight 5:04 AM PDT 8:06 PM PDT
Nautical Twilight 4:29 AM PDT 8:40 PM PDT
Astronomical Twilight 3:52 AM PDT 9:18 PM PDT
Moon 1:59 PM PDT (5/19) 1:43 AM PDT (5/19)
Length of Visible Light 15h 02m
Length of Day
14h 05m
Waxing Gibbous, 66% of the Moon is Illuminated
May 19
Waxing Gibbous
May 24
Full
May 31
Last Quarter
Jun 8
New
Jun 16
First Quarter

Hourly Weather History & Observations

Time (PDT) Temp. Dew Point Humidity Pressure Visibility Wind Dir Wind Speed Gust Speed Precip Events Conditions
12:56 AM 82.0 °F 24.1 °F 12% 29.70 in 10.0 mi Variable 4.6 mph - N/A   Clear
1:56 AM 81.0 °F 24.1 °F 12% 29.70 in 10.0 mi WSW 8.1 mph - N/A   Clear
2:56 AM 77.0 °F 23.0 °F 13% 29.71 in 10.0 mi WNW 3.5 mph - N/A   Clear
3:56 AM 73.9 °F 21.9 °F 14% 29.72 in 10.0 mi WSW 10.4 mph - N/A   Clear
4:56 AM 73.0 °F 21.9 °F 15% 29.73 in 10.0 mi NW 8.1 mph - N/A   Clear
5:56 AM 72.0 °F 24.1 °F 17% 29.75 in 10.0 mi West 9.2 mph - N/A   Clear
6:56 AM 73.9 °F 28.0 °F 18% 29.77 in 10.0 mi SE 4.6 mph - N/A   Clear
7:56 AM 78.1 °F 30.0 °F 17% 29.78 in 10.0 mi Calm Calm - N/A   Clear
8:56 AM 82.9 °F 30.9 °F 15% 29.78 in 10.0 mi East 3.5 mph - N/A   Clear
9:56 AM 86.0 °F 28.0 °F 12% 29.78 in 10.0 mi Variable 3.5 mph - N/A   Clear
10:56 AM 89.1 °F 27.0 °F 11% 29.77 in 10.0 mi NNE 9.2 mph - N/A   Clear
11:56 AM 93.0 °F 30.0 °F 11% 29.75 in 10.0 mi North 10.4 mph - N/A   Clear
12:56 PM 93.9 °F 28.0 °F 10% 29.72 in 10.0 mi NE 4.6 mph - N/A   Clear
1:56 PM 95.0 °F 27.0 °F 9% 29.70 in 10.0 mi Variable 4.6 mph - N/A   Clear
2:56 PM 97.0 °F 27.0 °F 8% 29.67 in 10.0 mi WNW 4.6 mph - N/A   Clear
3:56 PM 98.1 °F 28.0 °F 8% 29.65 in 10.0 mi ENE 9.2 mph 16.1 mph N/A   Clear
4:56 PM 98.1 °F 28.0 °F 8% 29.63 in 10.0 mi NE 9.2 mph - N/A   Clear
5:56 PM 98.1 °F 27.0 °F 8% 29.62 in 10.0 mi NNE 10.4 mph - N/A   Clear
6:34 PM 96.8 °F 21.2 °F 7% 29.72 in 10.0 mi NE 12.7 mph - N/A   Clear
6:56 PM 96.1 °F 15.1 °F 5% 29.63 in 10.0 mi North 17.3 mph 25.3 mph N/A   Clear
7:56 PM 91.9 °F 12.9 °F 5% 29.66 in 10.0 mi North 12.7 mph - N/A   Clear
8:56 PM 90.0 °F 18.0 °F 7% 29.68 in 10.0 mi NNW 12.7 mph - N/A   Clear
9:56 PM 86.0 °F 23.0 °F 10% 29.72 in 10.0 mi North 11.5 mph - N/A   Clear
10:56 PM 84.9 °F 23.0 °F 10% 29.72 in 10.0 mi NNW 9.2 mph - N/A   Clear
11:56 PM 84.9 °F 23.0 °F 10% 29.73 in 10.0 mi North 11.5 mph - N/A   Clear